DW5444 Weather Reports


time (UTC)temp
C
wind
direction
speed
KPH
gust
KPH
rain 1hr
cm
rain 24hr
cm
rain mn
cm
humidity
%
barometer
mb
20260901024542 20 124 0.0 3.2 0.00 0.00 0.00 32 1006.2
20260901023041 21 83 6.4 8.0 0.00 0.00 0.00 32 1006.2
20260901021540 21 97 3.2 8.0 0.00 0.00 0.00 30 1006.2
20260901020039 22 41 3.2 8.0 0.00 0.00 0.00 28 1006.3
20260901014538 23 47 4.8 17.7 0.00 0.00 0.00 26 1006.4
20260901013037 24 55 3.2 16.1 0.00 0.00 0.00 25 1006.4
20260901011539 24 335 6.4 12.9 0.00 0.00 0.00 24 1006.4
20260901010040 25 16 6.4 22.5 0.00 0.00 0.00 24 1006.6
20260901004533 25 19 9.7 17.7 0.00 0.00 0.00 24 1006.6
20260901003032 25 51 6.4 24.1 0.00 0.00 0.00 24 1006.9
20260901001532 25 34 11.3 17.7 0.00 0.00 0.00 24 1007.0
20260901000035 25 43 12.9 22.5 0.00 0.00 0.00 24 1007.2
20260831234528 25 64 12.9 22.5 0.00 0.00 0.00 24 1007.3
20260831233027 25 40 12.9 20.9 0.00 0.00 0.00 24 1007.5
20260831231525 25 52 12.9 22.5 0.00 0.00 0.00 25 1007.7
20260831230023 25 315 11.3 22.5 0.00 0.00 0.00 26 1007.8
20260831224522 25 359 9.7 17.7 0.00 0.00 0.00 25 1008.0
20260831223025 25 34 11.3 19.3 0.00 0.00 0.00 25 1008.3
20260831221521 25 72 12.9 27.4 0.00 0.00 0.00 26 1008.4
20260831220016 25 13 12.9 22.5 0.00 0.00 0.00 26 1008.8
20260831214513 25 54 9.7 22.5 0.00 0.00 0.00 26 1009.0
20260831213011 25 30 11.3 24.1 0.00 0.00 0.00 27 1009.1
20260831211509 25 334 8.0 22.5 0.00 0.00 0.00 26 1009.2
20260831210015 25 324 9.7 19.3 0.00 0.00 0.00 25 1009.4
20260831204504 24 44 9.7 24.1 0.00 0.00 0.00 24 1009.7
20260831203002 24 64 16.1 24.1 0.00 0.00 0.00 26 1009.7
20260831201612 24 23 11.3 20.9 0.00 0.00 0.00 25 1010.0
20260831200057 24 28 9.7 19.3 0.00 0.00 0.00 26 1010.3
20260831194553 23 49 9.7 19.3 0.00 0.00 0.00 26 1010.4
20260831193123 23 41 12.9 24.1 0.00 0.00 0.00 26 1010.6
20260831191551 23 41 9.7 19.3 0.00 0.00 0.00 27 1010.8
20260831190049 22 305 9.7 17.7 0.00 0.00 0.00 28 1011.1
20260831184542 22 47 8.0 20.9 0.00 0.00 0.00 28 1011.3
20260831183050 22 52 8.0 17.7 0.00 0.00 0.00 28 1011.5
20260831181549 22 6 8.0 16.1 0.00 0.00 0.00 29 1011.7
20260831180038 21 23 9.7 17.7 0.00 0.00 0.00 31 1011.9
20260831174531 21 8 6.4 19.3 0.00 0.00 0.00 32 1012.1
20260831173028 20 35 6.4 16.1 0.00 0.00 0.00 32 1012.3
20260831171527 20 325 9.7 17.7 0.00 0.00 0.00 32 1012.3
20260831170025 20 38 6.4 19.3 0.00 0.00 0.00 32 1012.3
20260831164524 20 357 6.4 16.1 0.00 0.00 0.00 32 1012.4
20260831163026 20 311 4.8 14.5 0.00 0.00 0.00 32 1012.4
20260831161534 20 23 8.0 16.1 0.00 0.00 0.00 32 1012.7
20260831160020 20 65 9.7 17.7 0.00 0.00 0.00 33 1012.8
20260831154516 19 7 4.8 12.9 0.00 0.00 0.00 34 1012.8
20260831153012 18 50 6.4 12.9 0.00 0.00 0.00 36 1012.8
20260831151508 18 10 6.4 12.9 0.00 0.00 0.00 37 1012.8
20260831150006 18 34 6.4 9.7 0.00 0.00 0.00 37 1012.9
20260831144502 17 43 6.4 9.7 0.00 0.00 0.00 39 1012.8
20260831143059 16 55 6.4 9.7 0.00 0.00 0.00 42 1012.7
20260831141554 15 50 4.8 8.0 0.00 0.00 0.00 44 1012.6
20260831140053 -17 0.0 0.0 0.00 0.00 0.00 1012.5
20260831134557 -17 0.0 0.0 0.00 0.00 0.00 1012.4
20260831133042 -17 0.0 0.0 0.00 0.00 0.00 1012.5
20260831131553 -17 0.0 0.0 0.00 0.00 0.00 1012.6
20260831130041 -17 0.0 0.0 0.00 0.00 0.00 1012.7
20260831124536 -17 0.0 0.0 0.00 0.00 0.00 1012.8
20260831123026 -17 0.0 0.0 0.00 0.00 0.00 1012.8
20260831121526 -17 0.0 0.0 0.00 0.00 0.00 1012.9
20260831120018 15 57 8.0 11.3 0.00 0.00 0.00 43 1013.0
20260831114516 15 72 8.0 9.7 0.00 0.00 0.00 42 1013.0
20260831113016 14 45 3.2 6.4 0.00 0.00 0.00 44 1013.1
20260831111513 13 42 1.6 4.8 0.00 0.00 0.00 45 1013.1
20260831110014 14 62 1.6 4.8 0.00 0.00 0.00 41 1013.3
20260831104523 15 50 3.2 9.7 0.00 0.00 0.00 40 1013.3
20260831103015 14 38 8.0 11.3 0.00 0.00 0.00 42 1013.2
20260831101507 12 46 6.4 9.7 0.00 0.00 0.00 45 1013.3
20260831100005 12 68 4.8 8.0 0.00 0.00 0.00 47 1013.4
20260831094508 11 57 4.8 8.0 0.00 0.00 0.00 48 1013.6
20260831093005 12 69 3.2 8.0 0.00 0.00 0.00 46 1013.9
20260831091558 11 76 3.2 4.8 0.00 0.00 0.00 50 1014.1
20260831090116 11 73 3.2 4.8 0.00 0.00 0.00 51 1014.2
20260831084555 11 56 3.2 4.8 0.00 0.00 0.00 50 1014.3
20260831083107 11 59 3.2 4.8 0.00 0.00 0.00 51 1014.3
20260831081600 11 64 4.8 4.8 0.00 0.00 0.00 51 1014.4
20260831080124 11 65 3.2 4.8 0.00 0.00 0.00 51 1014.6
20260831074550 11 50 1.6 4.8 0.00 0.00 0.00 50 1014.6
20260831073050 11 50 0.0 4.8 0.00 0.00 0.00 49 1014.6
20260831071548 11 52 1.6 4.8 0.00 0.00 0.00 50 1014.8
20260831070044 11 77 4.8 6.4 0.00 0.00 0.00 49 1014.8
20260831064544 12 73 4.8 6.4 0.00 0.00 0.00 47 1014.8
20260831063046 12 76 4.8 4.8 0.00 0.00 0.00 46 1014.8
20260831061543 12 69 3.2 4.8 0.00 0.00 0.00 46 1014.9
20260831060044 12 11 0.0 4.8 0.00 0.00 0.00 46 1015.0
20260831054541 12 264 0.0 1.6 0.00 0.00 0.00 46 1015.0
20260831053111 12 352 0.0 1.6 0.00 0.00 0.00 44 1015.0
20260831051540 12 326 0.0 3.2 0.00 0.00 0.00 43 1015.1
20260831050039 12 54 0.0 3.2 0.00 0.00 0.00 40 1015.2
20260831044631 12 30 0.0 3.2 0.00 0.00 0.00 35 1015.2
20260831043040 12 72 3.2 4.8 0.00 0.00 0.00 33 1015.3
20260831041539 13 86 4.8 6.4 0.00 0.00 0.00 31 1015.3
20260831040036 13 85 3.2 6.4 0.00 0.00 0.00 30 1015.4
20260831034535 13 86 4.8 6.4 0.00 0.00 0.00 30 1015.3
20260831033051 13 107 0.0 3.2 0.00 0.00 0.00 28 1015.2
20260831031537 13 83 0.0 3.2 0.00 0.00 0.00 28 1015.0
20260831030033 15 91 1.6 6.4 0.00 0.00 0.00 27 1014.9